When you browse on this site, cookies collect data to enhance your experience and personalize the content and advertising you see.
Visit our Privacy Policy to learn more. By continuing to use the site, you agree to this use of cookies and data.
EN

Hourly Weather La Paz

Today, 9 July, Thursday

Time Temperature Precipitation Wind Pressure Humidity
00:00 +1°C° 0 mm 1 mps 470 mmHg 25%
01:00 +1°C° 0 mm 1 mps 469 mmHg 24%
02:00 0°C° 0 mm 1 mps 469 mmHg 23%
03:00 0°C° 0 mm 1 mps 468 mmHg 22%
04:00 -2°C° 0 mm 0 mps 468 mmHg 21%
05:00 0°C° 0 mm 0 mps 469 mmHg 23%
06:00 +1°C° 0 mm 0 mps 471 mmHg 24%
07:00 +2°C° 0 mm 0 mps 472 mmHg 25%
08:00 +4°C° 0 mm 0 mps 474 mmHg 21%
09:00 +7°C° 0 mm 1 mps 475 mmHg 18%
10:00 +10°C° 0 mm 1 mps 477 mmHg 14%
11:00 +10°C° 0 mm 1 mps 476 mmHg 16%
12:00 +10°C° 0 mm 2 mps 476 mmHg 19%
13:00 +10°C° 0 mm 2 mps 476 mmHg 22%
14:00 +10°C° 0.1 mm 2 mps 475 mmHg 28%
15:00 +9°C° 0.1 mm 2 mps 475 mmHg 35%
16:00 +8°C° 0.1 mm 2 mps 474 mmHg 42%
17:00 +7°C° 0 mm 2 mps 473 mmHg 53%
18:00 +5°C° 0 mm 2 mps 473 mmHg 64%
19:00 +4°C° 0 mm 2 mps 472 mmHg 75%
20:00 +4°C° 0 mm 2 mps 473 mmHg 74%
21:00 +4°C° 0 mm 2 mps 473 mmHg 73%
22:00 +4°C° 0 mm 1 mps 473 mmHg 72%
23:00 +4°C° 0 mm 1 mps 472 mmHg 72%

Tomorrow, 10 July, Friday

Time Temperature Precipitation Wind Pressure Humidity
00:00 +3°C° 0 mm 1 mps 472 mmHg 73%
01:00 +3°C° 0 mm 1 mps 471 mmHg 74%
02:00 +2°C° 0 mm 1 mps 471 mmHg 73%
03:00 +2°C° 0 mm 1 mps 470 mmHg 71%
04:00 +2°C° 0 mm 1 mps 470 mmHg 69%
05:00 +3°C° 0 mm 1 mps 471 mmHg 64%
06:00 +4°C° 0 mm 1 mps 472 mmHg 58%
07:00 +5°C° 0 mm 1 mps 473 mmHg 52%
08:00 +6°C° 0 mm 1 mps 474 mmHg 47%
09:00 +8°C° 0 mm 1 mps 475 mmHg 42%
10:00 +10°C° 0 mm 1 mps 476 mmHg 36%
11:00 +9°C° 0 mm 2 mps 476 mmHg 35%
12:00 +10°C° 0 mm 2 mps 476 mmHg 33%
13:00 +12°C° 0 mm 2 mps 476 mmHg 32%
14:00 +11°C° 0 mm 3 mps 475 mmHg 32%
15:00 +10°C° 0 mm 3 mps 475 mmHg 33%
16:00 +10°C° 0 mm 3 mps 474 mmHg 33%
17:00 +8°C° 0 mm 2 mps 473 mmHg 41%
18:00 +7°C° 0 mm 1 mps 472 mmHg 49%
19:00 +5°C° 0 mm 1 mps 471 mmHg 57%
20:00 +5°C° 0 mm 1 mps 472 mmHg 59%
21:00 +5°C° 0 mm 1 mps 472 mmHg 61%
22:00 +5°C° 0 mm 1 mps 472 mmHg 63%
23:00 +4°C° 0 mm 1 mps 472 mmHg 53%

Day after tomorrow, 11 July, Saturday

Time Temperature Precipitation Wind Pressure Humidity
00:00 +4°C° 0 mm 1 mps 471 mmHg 44%
01:00 +3°C° 0 mm 1 mps 471 mmHg 35%
02:00 +3°C° 0 mm 1 mps 470 mmHg 31%
03:00 +2°C° 0 mm 1 mps 470 mmHg 27%
04:00 +2°C° 0 mm 1 mps 470 mmHg 22%
05:00 +3°C° 0 mm 1 mps 471 mmHg 24%
06:00 +4°C° 0 mm 0 mps 472 mmHg 26%
07:00 +5°C° 0 mm 0 mps 473 mmHg 28%
08:00 +8°C° 0 mm 1 mps 475 mmHg 24%
09:00 +9°C° 0 mm 1 mps 476 mmHg 21%
10:00 +11°C° 0 mm 1 mps 477 mmHg 18%
11:00 +12°C° 0 mm 1 mps 477 mmHg 21%
12:00 +13°C° 0 mm 2 mps 476 mmHg 25%
13:00 +13°C° 0 mm 2 mps 476 mmHg 29%
14:00 +13°C° 0.1 mm 2 mps 476 mmHg 34%
15:00 +11°C° 0.1 mm 3 mps 475 mmHg 40%
16:00 +11°C° 0.1 mm 3 mps 474 mmHg 45%
17:00 +9°C° 0 mm 2 mps 474 mmHg 53%
18:00 +7°C° 0 mm 2 mps 473 mmHg 62%
19:00 +6°C° 0 mm 1 mps 472 mmHg 70%
20:00 +6°C° 0 mm 1 mps 472 mmHg 73%
21:00 +6°C° 0 mm 1 mps 472 mmHg 75%
22:00 +5°C° 0 mm 1 mps 472 mmHg 78%
23:00 +5°C° 0 mm 1 mps 472 mmHg 73%

12 July, Sunday

Time Temperature Precipitation Wind Pressure Humidity
00:00 +4°C° 0 mm 1 mps 471 mmHg 68%
01:00 +4°C° 0 mm 1 mps 471 mmHg 63%
02:00 +3°C° 0 mm 1 mps 470 mmHg 58%
03:00 +3°C° 0 mm 1 mps 470 mmHg 53%
04:00 +2°C° 0 mm 1 mps 469 mmHg 48%
05:00 +3°C° 0 mm 1 mps 470 mmHg 44%
06:00 +5°C° 0 mm 1 mps 472 mmHg 41%
07:00 +6°C° 0 mm 1 mps 473 mmHg 37%
08:00 +8°C° 0 mm 1 mps 474 mmHg 32%
09:00 +10°C° 0 mm 1 mps 476 mmHg 27%
10:00 +12°C° 0 mm 1 mps 477 mmHg 21%
11:00 +13°C° 0 mm 2 mps 477 mmHg 21%
12:00 +14°C° 0 mm 2 mps 477 mmHg 20%
13:00 +15°C° 0 mm 2 mps 477 mmHg 19%
14:00 +14°C° 0 mm 2 mps 476 mmHg 22%
15:00 +14°C° 0 mm 2 mps 476 mmHg 25%
16:00 +13°C° 0 mm 2 mps 475 mmHg 28%
17:00 +10°C° 0 mm 2 mps 474 mmHg 38%
18:00 +9°C° 0 mm 1 mps 473 mmHg 47%
19:00 +7°C° 0 mm 1 mps 472 mmHg 57%
20:00 +5°C° 0 mm 0 mps 472 mmHg 63%
21:00 +4°C° 0 mm 0 mps 472 mmHg 68%
22:00 +4°C° 0 mm 0 mps 471 mmHg 74%
23:00 +3°C° 0 mm 0 mps 471 mmHg 73%

13 July, Monday

Time Temperature Precipitation Wind Pressure Humidity
00:00 +3°C° 0 mm 0 mps 471 mmHg 73%
01:00 +3°C° 0 mm 1 mps 470 mmHg 72%
02:00 +3°C° 0 mm 1 mps 470 mmHg 69%
03:00 +3°C° 0 mm 1 mps 469 mmHg 66%
04:00 +2°C° 0 mm 1 mps 469 mmHg 63%
05:00 +2°C° 0 mm 0 mps 470 mmHg 57%
06:00 +4°C° 0 mm 0 mps 472 mmHg 52%
07:00 +5°C° 0 mm 0 mps 473 mmHg 46%
08:00 +8°C° 0 mm 1 mps 475 mmHg 38%
09:00 +10°C° 0 mm 1 mps 476 mmHg 30%
10:00 +12°C° 0 mm 1 mps 477 mmHg 23%
11:00 +13°C° 0 mm 2 mps 477 mmHg 22%
12:00 +13°C° 0 mm 2 mps 477 mmHg 21%
13:00 +14°C° 0 mm 2 mps 477 mmHg 20%
14:00 +14°C° 0.1 mm 2 mps 477 mmHg 24%
15:00 +13°C° 0.1 mm 2 mps 476 mmHg 27%
16:00 +12°C° 0.1 mm 3 mps 476 mmHg 31%
17:00 +10°C° 0 mm 2 mps 475 mmHg 44%
18:00 +8°C° 0 mm 2 mps 474 mmHg 56%
19:00 +6°C° 0 mm 2 mps 473 mmHg 69%
20:00 +5°C° 0 mm 2 mps 473 mmHg 71%
21:00 +6°C° 0 mm 1 mps 473 mmHg 73%
22:00 +5°C° 0 mm 1 mps 473 mmHg 75%
23:00 +5°C° 0 mm 1 mps 472 mmHg 76%

14 July, Tuesday

Time Temperature Precipitation Wind Pressure Humidity
00:00 +4°C° 0 mm 1 mps 472 mmHg 78%
01:00 +4°C° 0 mm 1 mps 472 mmHg 79%
02:00 +3°C° 0 mm 1 mps 471 mmHg 82%
03:00 +3°C° 0 mm 1 mps 471 mmHg 85%
04:00 +2°C° 0 mm 1 mps 470 mmHg 88%
05:00 +3°C° 0 mm 1 mps 471 mmHg 85%
06:00 +4°C° 0 mm 1 mps 472 mmHg 82%
07:00 +5°C° 0 mm 1 mps 473 mmHg 79%
08:00 +6°C° 0 mm 1 mps 474 mmHg 68%
09:00 +8°C° 0 mm 1 mps 476 mmHg 58%
10:00 +10°C° 0 mm 1 mps 477 mmHg 47%
11:00 +11°C° 0.1 mm 1 mps 477 mmHg 44%
12:00 +12°C° 0.1 mm 1 mps 477 mmHg 40%
13:00 +12°C° 0.1 mm 2 mps 477 mmHg 36%
14:00 +12°C° 0.1 mm 2 mps 476 mmHg 38%
15:00 +12°C° 0.1 mm 2 mps 476 mmHg 39%
16:00 +12°C° 0.1 mm 2 mps 475 mmHg 41%
17:00 +9°C° 0 mm 2 mps 475 mmHg 53%
18:00 +7°C° 0 mm 2 mps 474 mmHg 65%
19:00 +6°C° 0 mm 2 mps 473 mmHg 76%
20:00 +5°C° 0 mm 2 mps 473 mmHg 78%
21:00 +5°C° 0 mm 1 mps 473 mmHg 79%
22:00 +5°C° 0 mm 1 mps 472 mmHg 81%
23:00 +4°C° 0 mm 1 mps 472 mmHg 82%
Show more